Miscellaneous Local Product
Issued by NWS Hastings, NE

Home | Current Version | Previous Version | Graphics & Text | Print | Product List | Glossary On
Versions: 1 2 3 4 5 6 7 8 9 10 11 12 13 14 15 16 17 18 19 20 21 22 23 24 25 26 27 28 29 30 31 32 33 34 35 36 37 38 39 40 41 42 43 44 45 46 47 48 49 50
000
AXUS43 KGID 282302
MISGRI

GID CWA HOURLY WEATHER ROUNDUP
NATIONAL WEATHER SERVICE HASTINGS NE
500 PM CST SAT FEB 28 2015

NOTE: "FAIR" INDICATES FEW OR NO CLOUDS BELOW 12,000 FEET WITH NO
SIGNIFICANT WEATHER AND/OR OBSTRUCTIONS TO VISIBILITY.

...SOUTH CENTRAL NEBRASKA...

CITY           SKY/WX    TMP DP  RH WIND       PRES   REMARKS
GRAND ISLAND   PTSUNNY   23  12  62 S13       30.25S WCI  11
HASTINGS       CLOUDY    21  12  68 SW9       30.23F WCI  11
KEARNEY        CLOUDY    23  10  58 S9        30.21F WCI  13
ORD            SUNNY     30   8  39 S9        30.17S WCI  22
YORK           CLOUDY    23  16  74 S12       30.28F WCI  12
AURORA         PTSUNNY   23  13  64 S12       30.25F WCI  12
LEXINGTON      CLOUDY    26  12  54 S9        30.18S WCI  17
HOLDREGE       CLOUDY    23  13  66 S9        30.20F WCI  13
HEBRON         CLOUDY    21  14  73 S7        30.31S WCI  13

...NEBRASKA PANHANDLE...

CITY           SKY/WX    TMP DP  RH WIND       PRES   REMARKS
CHADRON        SUNNY     29  13  51 S8        30.07F WCI  21
ALLIANCE       SUNNY     30   8  39 NE9       30.01S WCI  22
SCOTTSBLUFF    SUNNY     32  10  40 NE8       30.01S WCI  25
SIDNEY         MOSUNNY   27  12  53 E5        30.00S WCI  22

...WESTERN AND NORTH CENTRAL NEBRASKA...

CITY           SKY/WX    TMP DP  RH WIND       PRES   REMARKS
VALENTINE      MOSUNNY   33   9  36 NW8       30.11R WCI  26
AINSWORTH      SUNNY     32  10  40 W3        30.11S
ONEILL         SUNNY     33  11  41 SW10      30.16S WCI  24
BROKEN BOW     SUNNY     30  11  45 W9        30.13F WCI  22
IMPERIAL         N/A     25   9  50 S10       30.09R WCI  15
NORTH PLATTE   MOSUNNY   27   9  46 S6        30.12S WCI  20
MCCOOK         CLOUDY    27  12  53 S7        30.16R WCI  19

...EASTERN NEBRASKA...

CITY           SKY/WX    TMP DP  RH WIND       PRES   REMARKS
NORFOLK        MOSUNNY   27  12  53 S12       30.23F WCI  17
SO SIOUX CITY  CLOUDY    27  15  61 S15       30.30F WCI  15
COLUMBUS       CLOUDY    23   9  54 S13       30.29F WCI  11
ALBION         SUNNY     29  10  43 S10G18    30.22S WCI  20
OMAHA EPPLEY   LGT SNOW  23  16  74 S12       30.36F FOG     WCI  12
OFFUTT AFB     PTSUNNY   23  17  76 S7        30.35F WCI  15
MILLARD        CLOUDY    24  17  74 S7        30.35F HAZE    WCI  16
LINCOLN        CLOUDY    23  16  74 S8        30.33F WCI  14
NEBRASKA CITY  LGT SNOW  23  17  78 S8        30.35F WCI  14
BEATRICE       CLOUDY    22  17  78 S8        30.33F WCI  13
FALLS CITY     FLURRIES  23  17  78 SE7       30.37F WCI  15

...NORTHERN KANSAS...

CITY           SKY/WX    TMP DP  RH WIND       PRES   REMARKS
GOODLAND       LGT SNOW  19  13  77 S8        30.08S WCI   9
HILL CITY      CLOUDY    21  13  71 S7        30.22S WCI  12
NORTON         CLOUDY    21  12  68 SE6       30.19S WCI  14
PHILLIPSBURG   CLOUDY    25  16  68 SE8       30.25S WCI  16
SMITH CENTER   CLOUDY    19  14  79 S9        30.27S WCI   9
BELOIT         CLOUDY    21  18  86 S6        30.30F WCI  14
HAYS           CLOUDY    21   7  53 SE9       30.23F WCI  11
RUSSELL        CLOUDY    21  15  78 SE10      30.24F WCI  10
CONCORDIA      CLOUDY    21  15  78 S8        30.30F WCI  11
SALINA         CLOUDY    23  15  71 S6        30.33F WCI  16
TOPEKA         CLOUDY    24  18  77 SE6       30.38F WCI  17



USA.gov is the U.S. government's official web portal to all federal, state and local government web resources and services.